Location: Newark
(40.9833°N, 0.0333°W)
Time: 02:31:20
(UTC+00:00)

deb Explorer IX - Pass Details

Date: 02 November 2020
Orbit: 537 x 1105 km, 38.8° (Epoch: 02 December)

Event Time Altitude Azimuth Distance (km) Brightness Sun altitude
Rises 01:30:42 0° 189° (S) 2,897 - -55.1°
Reaches altitude 10° 01:35:00 10° 150° (SSE) 2,136 - -54.4°
Maximum altitude 01:36:03 11° 138° (SE) 2,133 - -54.3°
Drops below altitude 10° 01:37:08 10° 126° (SE) 2,214 - -54.1°
Sets 01:42:01 0° 89° (E) 3,329 - -53.4°
